Time,TemperatureF,DewpointF,PressureIn,WindDirection,WindDirectionDegrees,WindSpeedMPH,WindSpeedGustMPH,Humidity,HourlyPrecipIn,Conditions,Clouds,dailyrainin,SoftwareType,DateUTC
2013-02-22 00:00:00,24.7,20.6,30.01,NNE,32,2.0,2.0,84,0.00,,,0.00,Wunderground v.1.15,2013-02-22 06:00:00,
2013-02-22 00:05:00,24.5,20.6,30.01,NE,54,2.0,7.0,85,0.00,,,0.00,Wunderground v.1.15,2013-02-22 06:05:00,
2013-02-22 00:10:00,24.4,20.5,30.01,NE,35,2.0,2.0,85,0.04,,,0.01,Wunderground v.1.15,2013-02-22 06:10:00,
2013-02-22 00:15:00,24.4,20.5,30.00,NE,40,1.0,7.0,85,0.07,,,0.01,Wunderground v.1.15,2013-02-22 06:15:00,
2013-02-22 00:21:00,24.2,20.6,30.00,NNE,32,1.0,2.0,86,0.07,,,0.02,Wunderground v.1.15,2013-02-22 06:21:00,
2013-02-22 00:26:00,24.2,20.6,30.00,NE,34,1.0,12.0,86,0.06,,,0.02,Wunderground v.1.15,2013-02-22 06:26:00,
2013-02-22 00:32:00,24.1,20.5,29.99,ENE,78,2.0,6.0,86,0.04,,,0.03,Wunderground v.1.15,2013-02-22 06:32:00,
2013-02-22 00:38:00,24.1,20.5,29.99,NE,54,2.0,6.0,86,0.04,,,0.03,Wunderground v.1.15,2013-02-22 06:38:00,
2013-02-22 00:44:00,24.1,20.5,29.98,NE,40,2.0,3.0,86,0.04,,,0.03,Wunderground v.1.15,2013-02-22 06:44:00,
2013-02-22 00:49:00,23.9,20.3,29.98,NE,51,2.0,3.0,86,0.00,,,0.03,Wunderground v.1.15,2013-02-22 06:49:00,
2013-02-22 00:54:00,23.9,20.6,29.98,NNE,28,1.0,6.0,87,0.00,,,0.04,Wunderground v.1.15,2013-02-22 06:54:00,
2013-02-22 00:59:00,23.9,20.6,29.96,East,85,1.0,6.0,87,0.00,,,0.04,Wunderground v.1.15,2013-02-22 06:59:00,
2013-02-22 01:05:00,23.9,20.6,29.96,NE,52,2.0,5.0,87,0.00,,,0.04,Wunderground v.1.15,2013-02-22 07:05:00,
2013-02-22 01:11:00,23.9,20.6,29.96,NE,56,1.0,6.0,87,0.00,,,0.04,Wunderground v.1.15,2013-02-22 07:11:00,
2013-02-22 01:16:00,23.9,20.6,29.95,NE,42,1.0,6.0,87,0.00,,,0.05,Wunderground v.1.15,2013-02-22 07:16:00,
2013-02-22 01:22:00,23.9,20.6,29.95,NNE,31,1.0,1.0,87,0.00,,,0.05,Wunderground v.1.15,2013-02-22 07:22:00,
2013-02-22 01:30:00,23.9,20.6,29.95,NE,38,2.0,2.0,87,0.04,,,0.06,Wunderground v.1.15,2013-02-22 07:30:00,
2013-02-22 01:54:00,23.9,20.9,29.96,ENE,61,2.0,4.0,88,0.00,,,0.06,Wunderground v.1.15,2013-02-22 07:54:00,
2013-02-22 02:01:00,23.9,20.9,29.95,ENE,75,2.0,3.0,88,0.00,,,0.07,Wunderground v.1.15,2013-02-22 08:01:00,
2013-02-22 02:07:00,23.9,20.9,29.95,ENE,66,2.0,4.0,88,0.00,,,0.07,Wunderground v.1.15,2013-02-22 08:07:00,
2013-02-22 02:13:00,23.8,20.8,29.94,East,88,2.0,2.0,88,0.00,,,0.07,Wunderground v.1.15,2013-02-22 08:13:00,
2013-02-22 02:19:00,23.8,20.8,29.94,ENE,64,2.0,6.0,88,0.04,,,0.08,Wunderground v.1.15,2013-02-22 08:19:00,
2013-02-22 02:24:00,23.8,20.8,29.94,ENE,71,2.0,7.0,88,0.04,,,0.08,Wunderground v.1.15,2013-02-22 08:24:00,
2013-02-22 02:30:00,23.8,20.8,29.94,East,79,2.0,4.0,88,0.04,,,0.08,Wunderground v.1.15,2013-02-22 08:30:00,
2013-02-22 02:35:00,23.8,20.8,29.94,East,85,2.0,5.0,88,0.00,,,0.08,Wunderground v.1.15,2013-02-22 08:35:00,
2013-02-22 02:41:00,23.6,20.6,29.94,ENE,61,2.0,2.0,88,0.00,,,0.08,Wunderground v.1.15,2013-02-22 08:41:00,
2013-02-22 02:46:00,23.6,20.6,29.93,NNE,32,2.0,5.0,88,0.00,,,0.08,Wunderground v.1.15,2013-02-22 08:46:00,
2013-02-22 02:52:00,23.6,20.6,29.93,ENE,69,2.0,3.0,88,0.00,,,0.08,Wunderground v.1.15,2013-02-22 08:52:00,
2013-02-22 02:59:00,23.6,20.6,29.93,East,96,1.0,6.0,88,0.00,,,0.09,Wunderground v.1.15,2013-02-22 08:59:00,
2013-02-22 03:04:00,23.6,20.6,29.93,ENE,78,0.0,2.0,88,0.00,,,0.09,Wunderground v.1.15,2013-02-22 09:04:00,
2013-02-22 03:10:00,23.6,20.6,29.93,ENE,73,1.0,1.0,88,0.00,,,0.09,Wunderground v.1.15,2013-02-22 09:10:00,
2013-02-22 03:17:00,23.6,20.6,29.92,ENE,68,1.0,1.0,88,0.00,,,0.09,Wunderground v.1.15,2013-02-22 09:17:00,
2013-02-22 03:23:00,23.6,20.6,29.92,East,89,1.0,3.0,88,0.00,,,0.10,Wunderground v.1.15,2013-02-22 09:23:00,
2013-02-22 03:28:00,23.6,20.6,29.92,NE,41,1.0,3.0,88,0.00,,,0.10,Wunderground v.1.15,2013-02-22 09:28:00,
2013-02-22 03:34:00,23.6,20.6,29.92,East,79,0.0,1.0,88,0.00,,,0.10,Wunderground v.1.15,2013-02-22 09:34:00,
2013-02-22 03:40:00,23.6,20.6,29.92,East,80,0.0,2.0,88,0.00,,,0.10,Wunderground v.1.15,2013-02-22 09:40:00,
2013-02-22 03:45:00,23.6,20.6,29.91,ENE,68,1.0,2.0,88,0.00,,,0.10,Wunderground v.1.15,2013-02-22 09:45:00,
2013-02-22 03:51:00,23.6,20.6,29.91,ENE,72,1.0,3.0,88,0.00,,,0.10,Wunderground v.1.15,2013-02-22 09:51:00,
2013-02-22 03:56:00,23.6,20.6,29.91,ENE,71,0.0,3.0,88,0.00,,,0.10,Wunderground v.1.15,2013-02-22 09:56:00,
2013-02-22 04:01:00,23.6,20.6,29.90,ENE,58,1.0,1.0,88,0.00,,,0.10,Wunderground v.1.15,2013-02-22 10:01:00,
2013-02-22 04:07:00,23.6,20.6,29.90,East,85,1.0,3.0,88,0.00,,,0.10,Wunderground v.1.15,2013-02-22 10:07:00,
2013-02-22 04:12:00,23.6,20.6,29.90,ENE,72,0.0,2.0,88,0.00,,,0.10,Wunderground v.1.15,2013-02-22 10:12:00,
2013-02-22 04:17:00,23.6,20.6,29.89,ENE,65,0.0,2.0,88,0.00,,,0.10,Wunderground v.1.15,2013-02-22 10:17:00,
2013-02-22 04:23:00,23.8,20.8,29.89,East,83,0.0,3.0,88,0.00,,,0.10,Wunderground v.1.15,2013-02-22 10:23:00,
2013-02-22 04:29:00,23.8,20.8,29.89,ENE,75,1.0,5.0,88,0.00,,,0.10,Wunderground v.1.15,2013-02-22 10:29:00,
2013-02-22 04:34:00,23.8,20.8,29.89,ENE,59,1.0,1.0,88,0.00,,,0.10,Wunderground v.1.15,2013-02-22 10:34:00,
2013-02-22 04:39:00,23.8,20.8,29.89,ENE,61,1.0,1.0,88,0.00,,,0.10,Wunderground v.1.15,2013-02-22 10:39:00,
2013-02-22 04:45:00,23.9,20.9,29.89,ENE,64,1.0,3.0,88,0.00,,,0.10,Wunderground v.1.15,2013-02-22 10:45:00,
2013-02-22 04:51:00,23.9,20.9,29.89,East,97,1.0,1.0,88,0.00,,,0.10,Wunderground v.1.15,2013-02-22 10:51:00,
2013-02-22 04:56:00,23.9,20.9,29.89,East,79,1.0,5.0,88,0.00,,,0.10,Wunderground v.1.15,2013-02-22 10:56:00,
2013-02-22 05:02:00,24.1,21.1,29.89,East,79,1.0,2.0,88,0.00,,,0.10,Wunderground v.1.15,2013-02-22 11:02:00,
2013-02-22 05:08:00,24.1,21.1,29.89,East,88,1.0,5.0,88,0.00,,,0.10,Wunderground v.1.15,2013-02-22 11:08:00,
2013-02-22 05:13:00,24.1,21.1,29.89,ENE,72,2.0,6.0,88,0.00,,,0.10,Wunderground v.1.15,2013-02-22 11:13:00,
2013-02-22 05:18:00,24.2,21.2,29.88,NE,49,2.0,6.0,88,0.00,,,0.10,Wunderground v.1.15,2013-02-22 11:18:00,
2013-02-22 05:24:00,24.2,21.2,29.88,ENE,66,2.0,2.0,88,0.00,,,0.10,Wunderground v.1.15,2013-02-22 11:24:00,
2013-02-22 05:30:00,24.2,21.2,29.87,ENE,76,1.0,1.0,88,0.00,,,0.10,Wunderground v.1.15,2013-02-22 11:30:00,
2013-02-22 05:35:00,24.4,21.4,29.87,East,83,1.0,3.0,88,0.00,,,0.10,Wunderground v.1.15,2013-02-22 11:35:00,
2013-02-22 05:40:00,24.4,21.4,29.87,East,85,2.0,3.0,88,0.00,,,0.10,Wunderground v.1.15,2013-02-22 11:40:00,
2013-02-22 05:46:00,24.5,21.5,29.87,ENE,65,2.0,5.0,88,0.00,,,0.10,Wunderground v.1.15,2013-02-22 11:46:00,
2013-02-22 05:52:00,24.5,21.5,29.87,NE,44,1.0,1.0,88,0.00,,,0.10,Wunderground v.1.15,2013-02-22 11:52:00,
2013-02-22 05:57:00,24.5,21.5,29.87,ENE,75,1.0,4.0,88,0.00,,,0.10,Wunderground v.1.15,2013-02-22 11:57:00,
2013-02-22 06:03:00,24.7,21.7,29.86,East,80,2.0,2.0,88,0.00,,,0.10,Wunderground v.1.15,2013-02-22 12:03:00,
2013-02-22 06:09:00,24.7,21.7,29.86,ESE,109,1.0,4.0,88,0.00,,,0.10,Wunderground v.1.15,2013-02-22 12:09:00,
2013-02-22 06:15:00,24.7,21.7,29.85,ENE,78,1.0,2.0,88,0.00,,,0.10,Wunderground v.1.15,2013-02-22 12:15:00,
2013-02-22 06:21:00,24.8,21.8,29.85,East,92,1.0,2.0,88,0.00,,,0.10,Wunderground v.1.15,2013-02-22 12:21:00,
2013-02-22 06:26:00,24.8,21.8,29.85,East,82,1.0,2.0,88,0.00,,,0.10,Wunderground v.1.15,2013-02-22 12:26:00,
2013-02-22 06:31:00,24.8,21.8,29.85,East,92,1.0,5.0,88,0.00,,,0.10,Wunderground v.1.15,2013-02-22 12:31:00,
2013-02-22 06:37:00,25.0,21.9,29.85,East,93,1.0,5.0,88,0.00,,,0.10,Wunderground v.1.15,2013-02-22 12:37:00,
2013-02-22 06:43:00,25.0,21.9,29.85,East,82,1.0,2.0,88,0.00,,,0.10,Wunderground v.1.15,2013-02-22 12:43:00,
2013-02-22 06:48:00,25.0,21.7,29.86,ESE,113,0.0,2.0,87,0.00,,,0.10,Wunderground v.1.15,2013-02-22 12:48:00,
2013-02-22 06:53:00,25.0,21.7,29.86,ENE,78,1.0,3.0,87,0.00,,,0.10,Wunderground v.1.15,2013-02-22 12:53:00,
2013-02-22 06:59:00,25.0,21.7,29.85,East,83,1.0,3.0,87,0.00,,,0.10,Wunderground v.1.15,2013-02-22 12:59:00,
2013-02-22 07:04:00,25.1,21.8,29.85,East,85,0.0,1.0,87,0.00,,,0.10,Wunderground v.1.15,2013-02-22 13:04:00,
2013-02-22 07:10:00,25.1,21.8,29.85,East,86,0.0,0.0,87,0.00,,,0.10,Wunderground v.1.15,2013-02-22 13:10:00,
2013-02-22 07:15:00,25.1,21.8,29.84,ENE,73,0.0,1.0,87,0.00,,,0.10,Wunderground v.1.15,2013-02-22 13:15:00,
2013-02-22 07:20:00,25.1,21.8,29.84,ENE,65,0.0,0.0,87,0.00,,,0.10,Wunderground v.1.15,2013-02-22 13:20:00,
2013-02-22 07:25:00,25.3,22.0,29.84,East,93,1.0,3.0,87,0.00,,,0.10,Wunderground v.1.15,2013-02-22 13:25:00,
2013-02-22 07:31:00,25.3,22.0,29.84,ENE,64,1.0,1.0,87,0.00,,,0.10,Wunderground v.1.15,2013-02-22 13:31:00,
2013-02-22 07:37:00,25.3,22.0,29.84,NE,49,1.0,2.0,87,0.00,,,0.10,Wunderground v.1.15,2013-02-22 13:37:00,
2013-02-22 07:43:00,25.3,22.0,29.84,ENE,71,1.0,2.0,87,0.00,,,0.10,Wunderground v.1.15,2013-02-22 13:43:00,
2013-02-22 07:49:00,25.4,22.1,29.83,ENE,71,0.0,2.0,87,0.00,,,0.10,Wunderground v.1.15,2013-02-22 13:49:00,
2013-02-22 07:54:00,25.4,22.1,29.83,ENE,71,0.0,0.0,87,0.00,,,0.10,Wunderground v.1.15,2013-02-22 13:54:00,
2013-02-22 08:00:00,25.4,22.3,29.84,ENE,75,0.0,0.0,88,0.00,,,0.10,Wunderground v.1.15,2013-02-22 14:00:00,
2013-02-22 08:05:00,25.4,22.1,29.84,ENE,65,0.0,0.0,87,0.00,,,0.10,Wunderground v.1.15,2013-02-22 14:05:00,
2013-02-22 08:11:00,25.4,22.1,29.84,NE,54,0.0,0.0,87,0.00,,,0.10,Wunderground v.1.15,2013-02-22 14:11:00,
2013-02-22 08:17:00,25.4,22.1,29.84,NE,56,0.0,0.0,87,0.00,,,0.10,Wunderground v.1.15,2013-02-22 14:17:00,
2013-02-22 08:22:00,25.6,22.3,29.84,ENE,64,0.0,0.0,87,0.00,,,0.10,Wunderground v.1.15,2013-02-22 14:22:00,
2013-02-22 08:28:00,25.6,22.3,29.84,ENE,69,0.0,0.0,87,0.00,,,0.10,Wunderground v.1.15,2013-02-22 14:28:00,
2013-02-22 08:33:00,25.6,22.3,29.84,ENE,69,0.0,0.0,87,0.00,,,0.10,Wunderground v.1.15,2013-02-22 14:33:00,
2013-02-22 08:39:00,25.7,22.4,29.84,ENE,69,0.0,0.0,87,0.00,,,0.10,Wunderground v.1.15,2013-02-22 14:39:00,
2013-02-22 08:44:00,25.7,22.4,29.84,ENE,69,0.0,0.0,87,0.00,,,0.10,Wunderground v.1.15,2013-02-22 14:44:00,
2013-02-22 08:50:00,25.8,22.5,29.84,ENE,69,0.0,0.0,87,0.00,,,0.10,Wunderground v.1.15,2013-02-22 14:50:00,
2013-02-22 08:55:00,25.8,22.5,29.84,ENE,69,0.0,0.0,87,0.00,,,0.10,Wunderground v.1.15,2013-02-22 14:55:00,
2013-02-22 09:00:00,25.8,22.5,29.83,ENE,69,0.0,0.0,87,0.00,,,0.10,Wunderground v.1.15,2013-02-22 15:00:00,
2013-02-22 09:06:00,26.0,22.7,29.83,ENE,69,0.0,0.0,87,0.00,,,0.11,Wunderground v.1.15,2013-02-22 15:06:00,
2013-02-22 09:11:00,26.1,22.8,29.83,ENE,69,0.0,0.0,87,0.00,,,0.11,Wunderground v.1.15,2013-02-22 15:11:00,
2013-02-22 09:16:00,26.1,22.8,29.83,ENE,69,0.0,0.0,87,0.00,,,0.11,Wunderground v.1.15,2013-02-22 15:16:00,
2013-02-22 09:22:00,26.4,23.1,29.83,ENE,69,0.0,0.0,87,0.00,,,0.11,Wunderground v.1.15,2013-02-22 15:22:00,
2013-02-22 09:28:00,26.6,23.3,29.83,ENE,69,0.0,0.0,87,0.00,,,0.11,Wunderground v.1.15,2013-02-22 15:28:00,
2013-02-22 09:33:00,26.6,23.3,29.82,ENE,69,0.0,0.0,87,0.00,,,0.12,Wunderground v.1.15,2013-02-22 15:33:00,
2013-02-22 09:38:00,26.7,23.4,29.82,ENE,69,0.0,0.0,87,0.00,,,0.12,Wunderground v.1.15,2013-02-22 15:38:00,
2013-02-22 09:44:00,26.7,23.4,29.83,ENE,69,0.0,0.0,87,0.00,,,0.12,Wunderground v.1.15,2013-02-22 15:44:00,
2013-02-22 09:50:00,26.7,23.4,29.83,ENE,69,0.0,0.0,87,0.00,,,0.12,Wunderground v.1.15,2013-02-22 15:50:00,
2013-02-22 09:56:00,26.9,23.5,29.83,ENE,69,0.0,0.0,87,0.00,,,0.12,Wunderground v.1.15,2013-02-22 15:56:00,
2013-02-22 10:01:00,27.0,23.6,29.82,ENE,69,0.0,0.0,87,0.00,,,0.12,Wunderground v.1.15,2013-02-22 16:01:00,
2013-02-22 10:06:00,27.0,23.4,29.82,ENE,69,0.0,0.0,86,0.00,,,0.12,Wunderground v.1.15,2013-02-22 16:06:00,
2013-02-22 10:11:00,27.0,23.4,29.82,ENE,69,0.0,0.0,86,0.00,,,0.12,Wunderground v.1.15,2013-02-22 16:11:00,
2013-02-22 10:18:00,27.2,23.6,29.83,ENE,69,0.0,0.0,86,0.00,,,0.12,Wunderground v.1.15,2013-02-22 16:18:00,
2013-02-22 10:24:00,27.2,23.6,29.83,ENE,69,0.0,0.0,86,0.00,,,0.12,Wunderground v.1.15,2013-02-22 16:24:00,
2013-02-22 10:29:00,27.3,23.7,29.84,ENE,69,0.0,0.0,86,0.00,,,0.12,Wunderground v.1.15,2013-02-22 16:29:00,
2013-02-22 10:34:00,27.3,23.7,29.84,ENE,69,0.0,0.0,86,0.00,,,0.12,Wunderground v.1.15,2013-02-22 16:34:00,
2013-02-22 10:41:00,27.5,23.6,29.84,ENE,69,0.0,0.0,85,0.00,,,0.12,Wunderground v.1.15,2013-02-22 16:41:00,
2013-02-22 10:46:00,27.6,23.7,29.84,ENE,69,0.0,0.0,85,0.00,,,0.13,Wunderground v.1.15,2013-02-22 16:46:00,
2013-02-22 10:52:00,27.8,23.9,29.84,ENE,69,0.0,0.0,85,0.00,,,0.13,Wunderground v.1.15,2013-02-22 16:52:00,
2013-02-22 10:57:00,27.9,24.0,29.84,ENE,69,0.0,0.0,85,0.00,,,0.13,Wunderground v.1.15,2013-02-22 16:57:00,
2013-02-22 11:03:00,28.2,24.3,29.84,ENE,69,0.0,0.0,85,0.00,,,0.13,Wunderground v.1.15,2013-02-22 17:03:00,
2013-02-22 11:09:00,28.7,24.8,29.84,ENE,69,0.0,0.0,85,0.00,,,0.13,Wunderground v.1.15,2013-02-22 17:09:00,
2013-02-22 11:15:00,29.1,25.2,29.83,ENE,69,0.0,0.0,85,0.00,,,0.13,Wunderground v.1.15,2013-02-22 17:15:00,
2013-02-22 11:20:00,29.4,25.2,29.83,ENE,69,0.0,0.0,84,0.00,,,0.13,Wunderground v.1.15,2013-02-22 17:20:00,
2013-02-22 11:25:00,29.5,25.3,29.83,ENE,69,0.0,0.0,84,0.00,,,0.13,Wunderground v.1.15,2013-02-22 17:25:00,
2013-02-22 11:32:00,30.0,25.5,29.82,ENE,69,0.0,0.0,83,0.00,,,0.13,Wunderground v.1.15,2013-02-22 17:32:00,
2013-02-22 11:37:00,30.0,25.2,29.82,ENE,71,0.0,0.0,82,0.00,,,0.13,Wunderground v.1.15,2013-02-22 17:37:00,
2013-02-22 11:42:00,30.0,24.9,29.82,ENE,71,0.0,0.0,81,0.00,,,0.13,Wunderground v.1.15,2013-02-22 17:42:00,
2013-02-22 11:47:00,30.0,24.9,29.82,ENE,71,0.0,0.0,81,0.00,,,0.13,Wunderground v.1.15,2013-02-22 17:47:00,
2013-02-22 11:52:00,30.0,24.9,29.82,ENE,71,0.0,0.0,81,0.00,,,0.13,Wunderground v.1.15,2013-02-22 17:52:00,
2013-02-22 11:58:00,30.1,24.7,29.82,ENE,71,0.0,0.0,80,0.00,,,0.13,Wunderground v.1.15,2013-02-22 17:58:00,
2013-02-22 12:03:00,30.4,25.0,29.82,ENE,71,0.0,0.0,80,0.00,,,0.14,Wunderground v.1.15,2013-02-22 18:03:00,
2013-02-22 12:08:00,30.6,25.2,29.82,ENE,71,0.0,0.0,80,0.00,,,0.14,Wunderground v.1.15,2013-02-22 18:08:00,
2013-02-22 12:14:00,30.9,25.5,29.81,ENE,71,0.0,0.0,80,0.00,,,0.14,Wunderground v.1.15,2013-02-22 18:14:00,
2013-02-22 12:20:00,31.2,25.4,29.81,ENE,71,0.0,0.0,79,0.00,,,0.14,Wunderground v.1.15,2013-02-22 18:20:00,
2013-02-22 12:26:00,31.3,25.2,29.81,ENE,71,0.0,0.0,78,0.00,,,0.14,Wunderground v.1.15,2013-02-22 18:26:00,
2013-02-22 12:32:00,31.3,25.2,29.81,ENE,71,0.0,0.0,78,0.00,,,0.14,Wunderground v.1.15,2013-02-22 18:32:00,
2013-02-22 12:37:00,31.2,24.5,29.81,ENE,71,0.0,0.0,76,0.00,,,0.14,Wunderground v.1.15,2013-02-22 18:37:00,
2013-02-22 12:42:00,31.3,24.6,29.81,ENE,71,0.0,0.0,76,0.00,,,0.14,Wunderground v.1.15,2013-02-22 18:42:00,
2013-02-22 12:48:00,31.5,24.8,29.80,ENE,71,0.0,2.0,76,0.00,,,0.14,Wunderground v.1.15,2013-02-22 18:48:00,
2013-02-22 12:53:00,31.5,24.5,29.80,ENE,71,0.0,0.0,75,0.00,,,0.14,Wunderground v.1.15,2013-02-22 18:53:00,
2013-02-22 12:58:00,31.5,24.5,29.80,ENE,71,0.0,0.0,75,0.00,,,0.14,Wunderground v.1.15,2013-02-22 18:58:00,
2013-02-22 13:03:00,31.5,24.5,29.79,ENE,71,0.0,0.0,75,0.00,,,0.14,Wunderground v.1.15,2013-02-22 19:03:00,
2013-02-22 13:09:00,31.5,24.5,29.79,ENE,71,0.0,0.0,75,0.00,,,0.14,Wunderground v.1.15,2013-02-22 19:09:00,
2013-02-22 13:14:00,31.6,24.6,29.79,ENE,71,0.0,0.0,75,0.00,,,0.14,Wunderground v.1.15,2013-02-22 19:14:00,
2013-02-22 13:19:00,31.6,24.9,29.79,ENE,71,0.0,0.0,76,0.00,,,0.14,Wunderground v.1.15,2013-02-22 19:19:00,
2013-02-22 13:24:00,31.5,24.8,29.79,ENE,71,0.0,0.0,76,0.00,,,0.14,Wunderground v.1.15,2013-02-22 19:24:00,
2013-02-22 13:29:00,31.8,25.1,29.79,ENE,71,0.0,0.0,76,0.00,,,0.14,Wunderground v.1.15,2013-02-22 19:29:00,
2013-02-22 13:34:00,31.9,25.2,29.79,SW,227,0.0,1.0,76,0.00,,,0.14,Wunderground v.1.15,2013-02-22 19:34:00,
2013-02-22 13:40:00,32.1,25.1,29.79,SW,226,0.0,0.0,75,0.00,,,0.14,Wunderground v.1.15,2013-02-22 19:40:00,
2013-02-22 13:49:00,32.1,24.7,29.79,South,191,0.0,0.0,74,0.00,,,0.14,Wunderground v.1.15,2013-02-22 19:49:00,
2013-02-22 13:55:00,31.9,24.6,29.79,South,176,0.0,0.0,74,0.00,,,0.14,Wunderground v.1.15,2013-02-22 19:55:00,
2013-02-22 14:00:00,31.8,24.5,29.80,SSE,154,0.0,0.0,74,0.00,,,0.14,Wunderground v.1.15,2013-02-22 20:00:00,
2013-02-22 14:05:00,31.5,24.2,29.80,SW,226,0.0,0.0,74,0.00,,,0.14,Wunderground v.1.15,2013-02-22 20:05:00,
2013-02-22 14:10:00,31.2,24.2,29.80,SW,226,0.0,0.0,75,0.00,,,0.14,Wunderground v.1.15,2013-02-22 20:10:00,
2013-02-22 14:16:00,30.9,23.9,29.81,SW,226,0.0,0.0,75,0.00,,,0.14,Wunderground v.1.15,2013-02-22 20:16:00,
2013-02-22 14:22:00,30.6,23.6,29.81,SE,136,0.0,0.0,75,0.00,,,0.14,Wunderground v.1.15,2013-02-22 20:22:00,
2013-02-22 14:27:00,30.3,23.6,29.81,SSW,206,0.0,1.0,76,0.00,,,0.14,Wunderground v.1.15,2013-02-22 20:27:00,
2013-02-22 14:32:00,29.8,23.2,29.82,SW,227,1.0,1.0,76,0.00,,,0.14,Wunderground v.1.15,2013-02-22 20:32:00,
2013-02-22 14:37:00,29.7,23.4,29.82,SW,227,1.0,1.0,77,0.00,,,0.14,Wunderground v.1.15,2013-02-22 20:37:00,
2013-02-22 14:43:00,29.4,23.4,29.82,SW,227,1.0,1.0,78,0.00,,,0.14,Wunderground v.1.15,2013-02-22 20:43:00,
2013-02-22 14:49:00,29.3,23.3,29.82,SW,227,0.0,1.0,78,0.00,,,0.14,Wunderground v.1.15,2013-02-22 20:49:00,
2013-02-22 14:56:00,29.1,23.4,29.82,WSW,248,0.0,1.0,79,0.00,,,0.14,Wunderground v.1.15,2013-02-22 20:56:00,
2013-02-22 15:01:00,29.1,23.4,29.82,SW,234,0.0,0.0,79,0.00,,,0.14,Wunderground v.1.15,2013-02-22 21:01:00,
2013-02-22 15:07:00,29.1,23.4,29.82,WSW,240,0.0,0.0,79,0.00,,,0.14,Wunderground v.1.15,2013-02-22 21:07:00,
2013-02-22 15:13:00,29.1,23.7,29.82,WSW,244,0.0,3.0,80,0.00,,,0.14,Wunderground v.1.15,2013-02-22 21:13:00,
2013-02-22 15:18:00,29.3,23.9,29.81,West,275,0.0,3.0,80,0.00,,,0.14,Wunderground v.1.15,2013-02-22 21:18:00,
2013-02-22 15:24:00,29.3,23.9,29.81,West,275,0.0,0.0,80,0.00,,,0.14,Wunderground v.1.15,2013-02-22 21:24:00,
2013-02-22 15:30:00,29.4,24.0,29.81,West,263,0.0,0.0,80,0.00,,,0.14,Wunderground v.1.15,2013-02-22 21:30:00,
2013-02-22 15:36:00,29.4,24.0,29.81,WSW,258,0.0,0.0,80,0.00,,,0.14,Wunderground v.1.15,2013-02-22 21:36:00,
2013-02-22 15:41:00,29.4,24.0,29.81,WSW,258,0.0,0.0,80,0.00,,,0.14,Wunderground v.1.15,2013-02-22 21:41:00,
2013-02-22 15:46:00,29.4,24.0,29.82,SW,222,0.0,0.0,80,0.00,,,0.14,Wunderground v.1.15,2013-02-22 21:46:00,
2013-02-22 15:52:00,29.3,23.9,29.82,SW,222,0.0,0.0,80,0.00,,,0.14,Wunderground v.1.15,2013-02-22 21:52:00,
2013-02-22 15:57:00,29.3,23.9,29.82,SW,232,0.0,0.0,80,0.00,,,0.14,Wunderground v.1.15,2013-02-22 21:57:00,
2013-02-22 16:03:00,29.1,23.7,29.82,SW,232,0.0,0.0,80,0.00,,,0.14,Wunderground v.1.15,2013-02-22 22:03:00,
2013-02-22 16:09:00,29.1,23.7,29.82,SW,232,0.0,0.0,80,0.00,,,0.14,Wunderground v.1.15,2013-02-22 22:09:00,
2013-02-22 16:15:00,29.3,23.9,29.82,SW,232,0.0,0.0,80,0.00,,,0.14,Wunderground v.1.15,2013-02-22 22:15:00,
2013-02-22 16:20:00,29.3,23.9,29.82,SW,232,0.0,0.0,80,0.00,,,0.14,Wunderground v.1.15,2013-02-22 22:20:00,
2013-02-22 16:26:00,29.1,23.7,29.82,SW,232,0.0,0.0,80,0.00,,,0.14,Wunderground v.1.15,2013-02-22 22:26:00,
2013-02-22 16:31:00,29.1,23.7,29.82,WSW,241,0.0,0.0,80,0.00,,,0.14,Wunderground v.1.15,2013-02-22 22:31:00,
2013-02-22 16:37:00,29.1,23.7,29.82,WSW,241,0.0,0.0,80,0.00,,,0.14,Wunderground v.1.15,2013-02-22 22:37:00,
2013-02-22 16:44:00,29.0,23.6,29.82,WSW,241,0.0,0.0,80,0.00,,,0.14,Wunderground v.1.15,2013-02-22 22:44:00,
2013-02-22 16:49:00,29.0,23.6,29.82,WSW,241,0.0,0.0,80,0.00,,,0.14,Wunderground v.1.15,2013-02-22 22:49:00,
2013-02-22 16:54:00,29.0,23.6,29.82,WSW,241,0.0,0.0,80,0.00,,,0.14,Wunderground v.1.15,2013-02-22 22:54:00,
2013-02-22 16:59:00,29.0,23.6,29.82,WSW,241,0.0,1.0,80,0.00,,,0.14,Wunderground v.1.15,2013-02-22 22:59:00,
2013-02-22 17:05:00,28.8,23.4,29.82,SW,232,0.0,0.0,80,0.00,,,0.14,Wunderground v.1.15,2013-02-22 23:05:00,
2013-02-22 17:10:00,28.7,23.3,29.82,SW,232,1.0,1.0,80,0.00,,,0.14,Wunderground v.1.15,2013-02-22 23:10:00,
2013-02-22 17:16:00,28.5,23.1,29.83,SW,224,1.0,3.0,80,0.00,,,0.14,Wunderground v.1.15,2013-02-22 23:16:00,
2013-02-22 17:22:00,28.4,23.0,29.83,WSW,239,1.0,2.0,80,0.00,,,0.14,Wunderground v.1.15,2013-02-22 23:22:00,
2013-02-22 17:27:00,28.4,23.0,29.83,WSW,237,0.0,2.0,80,0.00,,,0.14,Wunderground v.1.15,2013-02-22 23:27:00,
2013-02-22 17:33:00,28.2,22.8,29.84,West,260,0.0,1.0,80,0.00,,,0.14,Wunderground v.1.15,2013-02-22 23:33:00,
2013-02-22 17:38:00,28.1,22.7,29.84,WSW,256,0.0,1.0,80,0.00,,,0.14,Wunderground v.1.15,2013-02-22 23:38:00,
2013-02-22 17:44:00,27.9,22.5,29.84,WSW,241,0.0,0.0,80,0.00,,,0.14,Wunderground v.1.15,2013-02-22 23:44:00,
2013-02-22 17:50:00,27.9,22.8,29.84,WSW,246,0.0,0.0,81,0.00,,,0.14,Wunderground v.1.15,2013-02-22 23:50:00,
2013-02-22 17:56:00,27.9,22.8,29.84,WSW,246,0.0,0.0,81,0.00,,,0.14,Wunderground v.1.15,2013-02-22 23:56:00,
2013-02-22 18:01:00,27.8,22.7,29.85,WSW,250,0.0,0.0,81,0.00,,,0.14,Wunderground v.1.15,2013-02-23 00:01:00,
2013-02-22 18:07:00,27.8,22.7,29.85,SW,227,0.0,2.0,81,0.00,,,0.14,Wunderground v.1.15,2013-02-23 00:07:00,
2013-02-22 18:13:00,27.8,22.7,29.85,SW,233,0.0,0.0,81,0.00,,,0.14,Wunderground v.1.15,2013-02-23 00:13:00,
2013-02-22 18:18:00,27.6,22.5,29.84,WSW,244,0.0,2.0,81,0.00,,,0.14,Wunderground v.1.15,2013-02-23 00:18:00,
2013-02-22 18:23:00,27.6,22.5,29.84,WSW,247,0.0,2.0,81,0.00,,,0.14,Wunderground v.1.15,2013-02-23 00:23:00,
2013-02-22 18:29:00,27.6,22.5,29.85,WSW,241,0.0,2.0,81,0.00,,,0.14,Wunderground v.1.15,2013-02-23 00:29:00,
2013-02-22 18:35:00,27.5,22.7,29.85,SW,224,0.0,2.0,82,0.00,,,0.14,Wunderground v.1.15,2013-02-23 00:35:00,
2013-02-22 18:40:00,27.5,22.7,29.85,SW,226,0.0,0.0,82,0.00,,,0.14,Wunderground v.1.15,2013-02-23 00:40:00,
2013-02-22 18:46:00,27.5,22.7,29.85,SW,224,0.0,0.0,82,0.00,,,0.14,Wunderground v.1.15,2013-02-23 00:46:00,
2013-02-22 18:52:00,27.3,22.5,29.85,SW,219,0.0,4.0,82,0.00,,,0.14,Wunderground v.1.15,2013-02-23 00:52:00,
2013-02-22 18:57:00,27.3,22.5,29.85,SW,216,0.0,4.0,82,0.00,,,0.14,Wunderground v.1.15,2013-02-23 00:57:00,
2013-02-22 19:02:00,27.2,22.4,29.85,SW,230,1.0,1.0,82,0.00,,,0.14,Wunderground v.1.15,2013-02-23 01:02:00,
2013-02-22 19:07:00,27.2,22.4,29.85,WSW,253,1.0,2.0,82,0.00,,,0.14,Wunderground v.1.15,2013-02-23 01:07:00,
2013-02-22 19:13:00,27.2,22.4,29.85,SW,236,2.0,2.0,82,0.00,,,0.14,Wunderground v.1.15,2013-02-23 01:13:00,
2013-02-22 19:18:00,27.0,22.2,29.86,WSW,240,1.0,6.0,82,0.00,,,0.14,Wunderground v.1.15,2013-02-23 01:18:00,
2013-02-22 19:23:00,27.0,22.2,29.86,SW,216,1.0,1.0,82,0.00,,,0.14,Wunderground v.1.15,2013-02-23 01:23:00,
2013-02-22 19:29:00,27.0,22.5,29.86,SSW,208,1.0,1.0,83,0.00,,,0.14,Wunderground v.1.15,2013-02-23 01:29:00,
2013-02-22 19:34:00,27.0,22.5,29.86,SSW,199,0.0,5.0,83,0.00,,,0.14,Wunderground v.1.15,2013-02-23 01:34:00,
2013-02-22 19:39:00,27.0,22.5,29.86,SSW,208,1.0,5.0,83,0.00,,,0.14,Wunderground v.1.15,2013-02-23 01:39:00,
2013-02-22 19:45:00,26.9,22.4,29.85,SW,223,1.0,1.0,83,0.00,,,0.14,Wunderground v.1.15,2013-02-23 01:45:00,
2013-02-22 19:51:00,26.9,22.4,29.85,WSW,257,0.0,1.0,83,0.00,,,0.14,Wunderground v.1.15,2013-02-23 01:51:00,
2013-02-22 19:58:00,26.9,22.4,29.85,SSW,212,1.0,6.0,83,0.00,,,0.14,Wunderground v.1.15,2013-02-23 01:58:00,
2013-02-22 20:03:00,26.7,22.2,29.86,SW,224,1.0,3.0,83,0.00,,,0.14,Wunderground v.1.15,2013-02-23 02:03:00,
2013-02-22 20:08:00,26.7,22.2,29.86,SW,216,1.0,4.0,83,0.00,,,0.14,Wunderground v.1.15,2013-02-23 02:08:00,
2013-02-22 20:14:00,26.7,22.5,29.87,WSW,239,0.0,5.0,84,0.00,,,0.14,Wunderground v.1.15,2013-02-23 02:14:00,
2013-02-22 20:19:00,26.7,22.5,29.87,WSW,243,1.0,5.0,84,0.00,,,0.14,Wunderground v.1.15,2013-02-23 02:19:00,
2013-02-22 20:24:00,26.7,22.5,29.87,WSW,244,1.0,6.0,84,0.00,,,0.14,Wunderground v.1.15,2013-02-23 02:24:00,
2013-02-22 20:29:00,26.7,22.5,29.87,WSW,240,2.0,6.0,84,0.00,,,0.14,Wunderground v.1.15,2013-02-23 02:29:00,
2013-02-22 20:35:00,26.7,22.5,29.87,WSW,244,2.0,3.0,84,0.00,,,0.14,Wunderground v.1.15,2013-02-23 02:35:00,
2013-02-22 20:40:00,26.7,22.5,29.87,WSW,246,2.0,2.0,84,0.00,,,0.14,Wunderground v.1.15,2013-02-23 02:40:00,
2013-02-22 20:45:00,26.7,22.5,29.87,WSW,237,3.0,5.0,84,0.00,,,0.14,Wunderground v.1.15,2013-02-23 02:45:00,
2013-02-22 20:51:00,26.7,22.5,29.87,SW,233,2.0,4.0,84,0.00,,,0.14,Wunderground v.1.15,2013-02-23 02:51:00,
2013-02-22 20:56:00,26.7,22.5,29.87,WSW,240,2.0,5.0,84,0.00,,,0.14,Wunderground v.1.15,2013-02-23 02:56:00,
2013-02-22 21:01:00,26.7,22.5,29.87,WSW,250,2.0,2.0,84,0.00,,,0.14,Wunderground v.1.15,2013-02-23 03:01:00,
2013-02-22 21:07:00,26.7,22.5,29.87,SW,233,2.0,5.0,84,0.00,,,0.14,Wunderground v.1.15,2013-02-23 03:07:00,
2013-02-22 21:13:00,26.6,22.4,29.87,WSW,254,2.0,2.0,84,0.00,,,0.14,Wunderground v.1.15,2013-02-23 03:13:00,
2013-02-22 21:18:00,26.6,22.4,29.87,West,261,1.0,7.0,84,0.00,,,0.14,Wunderground v.1.15,2013-02-23 03:18:00,
2013-02-22 21:23:00,26.6,22.4,29.87,WSW,240,1.0,2.0,84,0.00,,,0.14,Wunderground v.1.15,2013-02-23 03:23:00,
2013-02-22 21:29:00,26.6,22.4,29.87,WSW,254,1.0,7.0,84,0.00,,,0.14,Wunderground v.1.15,2013-02-23 03:29:00,
2013-02-22 21:35:00,26.6,22.4,29.87,SW,234,1.0,6.0,84,0.00,,,0.14,Wunderground v.1.15,2013-02-23 03:35:00,
2013-02-22 21:41:00,26.6,22.4,29.87,WSW,244,2.0,2.0,84,0.00,,,0.14,Wunderground v.1.15,2013-02-23 03:41:00,
2013-02-22 21:46:00,26.6,22.4,29.87,WSW,250,1.0,2.0,84,0.00,,,0.14,Wunderground v.1.15,2013-02-23 03:46:00,
2013-02-22 21:52:00,26.4,22.2,29.87,WSW,241,0.0,0.0,84,0.00,,,0.14,Wunderground v.1.15,2013-02-23 03:52:00,
2013-02-22 21:57:00,26.4,22.2,29.87,WSW,247,0.0,0.0,84,0.00,,,0.14,Wunderground v.1.15,2013-02-23 03:57:00,
2013-02-22 22:03:00,26.4,22.2,29.87,SW,230,0.0,0.0,84,0.00,,,0.14,Wunderground v.1.15,2013-02-23 04:03:00,
2013-02-22 22:08:00,26.4,22.2,29.87,WSW,250,0.0,0.0,84,0.00,,,0.14,Wunderground v.1.15,2013-02-23 04:08:00,
2013-02-22 22:14:00,26.4,22.2,29.87,SW,234,0.0,3.0,84,0.00,,,0.14,Wunderground v.1.15,2013-02-23 04:14:00,
2013-02-22 22:19:00,26.3,22.1,29.87,WSW,248,1.0,3.0,84,0.00,,,0.14,Wunderground v.1.15,2013-02-23 04:19:00,
2013-02-22 22:24:00,26.3,22.1,29.87,WSW,256,1.0,5.0,84,0.00,,,0.14,Wunderground v.1.15,2013-02-23 04:24:00,
2013-02-22 22:30:00,26.3,22.1,29.87,SW,229,1.0,1.0,84,0.00,,,0.14,Wunderground v.1.15,2013-02-23 04:30:00,
2013-02-22 22:35:00,26.3,22.1,29.87,WSW,250,0.0,3.0,84,0.00,,,0.14,Wunderground v.1.15,2013-02-23 04:35:00,
2013-02-22 22:40:00,26.1,21.9,29.87,SW,234,1.0,1.0,84,0.00,,,0.14,Wunderground v.1.15,2013-02-23 04:40:00,
2013-02-22 22:46:00,26.1,21.9,29.86,SSW,208,1.0,3.0,84,0.00,,,0.14,Wunderground v.1.15,2013-02-23 04:46:00,
2013-02-22 22:52:00,26.1,21.9,29.86,WSW,237,1.0,1.0,84,0.00,,,0.14,Wunderground v.1.15,2013-02-23 04:52:00,
2013-02-22 22:57:00,26.1,21.9,29.86,SW,236,0.0,2.0,84,0.00,,,0.14,Wunderground v.1.15,2013-02-23 04:57:00,
2013-02-22 23:03:00,26.1,21.9,29.86,SW,230,0.0,1.0,84,0.00,,,0.14,Wunderground v.1.15,2013-02-23 05:03:00,
2013-02-22 23:04:00,26.1,21.9,29.86,SW,230,0.0,1.0,84,0.00,,,0.14,Wunderground v.1.15,2013-02-23 05:04:00,
2013-02-22 23:05:00,26.0,21.8,29.86,SW,222,0.0,1.0,84,0.00,,,0.14,Wunderground v.1.15,2013-02-23 05:05:00,
2013-02-22 23:06:00,26.0,21.8,29.86,WSW,244,0.0,1.0,84,0.00,,,0.14,Wunderground v.1.15,2013-02-23 05:06:00,
2013-02-22 23:11:00,26.0,21.5,29.86,SW,215,0.0,0.0,83,0.00,,,0.14,Wunderground v.1.15,2013-02-23 05:11:00,
2013-02-22 23:16:00,26.0,21.5,29.86,WSW,248,0.0,0.0,83,0.00,,,0.14,Wunderground v.1.15,2013-02-23 05:16:00,
2013-02-22 23:22:00,26.0,21.5,29.86,WSW,240,0.0,1.0,83,0.00,,,0.14,Wunderground v.1.15,2013-02-23 05:22:00,
2013-02-22 23:27:00,26.0,21.5,29.86,WSW,246,1.0,2.0,83,0.00,,,0.14,Wunderground v.1.15,2013-02-23 05:27:00,
2013-02-22 23:32:00,26.0,21.5,29.86,WSW,239,1.0,1.0,83,0.00,,,0.14,Wunderground v.1.15,2013-02-23 05:32:00,
2013-02-22 23:38:00,25.8,21.3,29.86,SW,230,1.0,1.0,83,0.00,,,0.14,Wunderground v.1.15,2013-02-23 05:38:00,
2013-02-22 23:43:00,25.8,21.3,29.86,SSW,200,1.0,2.0,83,0.00,,,0.14,Wunderground v.1.15,2013-02-23 05:43:00,
2013-02-22 23:48:00,25.8,21.3,29.86,SW,219,1.0,3.0,83,0.00,,,0.14,Wunderground v.1.15,2013-02-23 05:48:00,
2013-02-22 23:54:00,25.7,21.3,29.86,WSW,240,0.0,3.0,83,0.00,,,0.14,Wunderground v.1.15,2013-02-23 05:54:00,